Weather History for Flint, MI

Change the Weather History Date:

Tuesday, July 30, 2013

  Actual Average Record
Temperature  
Mean Temperature 64 °F 70 °F  
Max Temperature 79 °F 81 °F 98 °F (1933)
Min Temperature 48 °F 59 °F 44 °F (1965)
Degree Days  
Heating Degree Days 1 0  
Month to date heating degree days 9 10  
Since 1 June heating degree days 50 76  
Since 1 July heating degree days 9 10  
Cooling Degree Days 0 6  
Month to date cooling degree days 263 180  
Year to date cooling degree days 501 324  
Since 1 June cooling degree days 422 292  
Growing Degree Days 14 (Base 50)    
Moisture  
Dew Point 54 °F    
Average Humidity 68    
Maximum Humidity 93    
Minimum Humidity 42    
Precipitation  
Precipitation 0.00 in 0.12 in 1.12 in (2000)
Month to date precipitation 1.15 3.20  
Year to date precipitation 22.42 17.26  
Snow  
Snow 0.00 in 0.00 in 0.00 in ()
Month to date snowfall 0.0 0.0  
Since 1 June snowfall 0.0 0.0  
Since 1 July snowfall 0.0 0.0  
Snow Depth 0.00 in    
Sea Level Pressure  
Sea Level Pressure 30.19 in    
Wind  
Wind Speed 2 mph (SSW)    
Max Wind Speed 9 mph    
Max Gust Speed 22 mph    
Visibility 10 miles    
Events Fog    
T = Trace of Precipitation, MM = Missing Value Source: NWS Daily Summary

Daily Weather History Graph

Daily Weather History Graph

Search for Another Location

Airport:

Trip Planner

Search our weather history database for the weather conditions in past years. The results will help you decide how hot, cold, wet, or windy it might be!

Date:

Astronomy

Jul. 30, 2013 Rise Set
Actual Time 6:24 AM EDT 8:58 PM EDT
Civil Twilight 5:51 AM EDT 9:30 PM EDT
Nautical Twilight 5:11 AM EDT 10:10 PM EDT
Astronomical Twilight 4:25 AM EDT 10:56 PM EDT
Moon 12:42 AM EDT (7/30) 3:16 PM EDT (7/30)
Length of Visible Light 15h 38m
Length of Day
14h 33m
Last Quarter, 41% of the Moon is Illuminated
Jul 30
Last Quarter
Aug 6
New
Aug 14
First Quarter
Aug 20
Full
Aug 28
Last Quarter

Hourly Weather History & Observations

Time (EDT) Temp. Dew Point Humidity Pressure Visibility Wind Dir Wind Speed Gust Speed Precip Events Conditions
12:53 AM 62.1 °F 55.9 °F 80% 30.19 in 10.0 mi West 4.6 mph - N/A   Overcast
1:53 AM 55.9 °F 53.1 °F 90% 30.19 in 10.0 mi Calm Calm - N/A   Clear
2:53 AM 55.9 °F 53.1 °F 90% 30.21 in 10.0 mi Calm Calm - N/A   Clear
3:53 AM 55.0 °F 52.0 °F 89% 30.20 in 10.0 mi Calm Calm - N/A   Clear
4:30 AM 53.6 °F 50.0 °F 88% 30.21 in 10.0 mi Calm Calm - N/A   Partly Cloudy
4:53 AM 54.0 °F 51.1 °F 90% 30.21 in 10.0 mi Calm Calm - N/A   Clear
5:53 AM 50.0 °F 48.0 °F 93% 30.22 in 10.0 mi Calm Calm - N/A Fog Shallow Fog
6:53 AM 50.0 °F 46.9 °F 89% 30.23 in 10.0 mi Calm Calm - N/A Fog Shallow Fog
7:53 AM 57.0 °F 54.0 °F 89% 30.24 in 10.0 mi Calm Calm - N/A Fog Shallow Fog
8:53 AM 62.1 °F 55.9 °F 80% 30.24 in 10.0 mi Calm Calm - N/A   Clear
9:53 AM 66.9 °F 55.0 °F 66% 30.24 in 10.0 mi Calm Calm - N/A   Clear
10:53 AM 70.0 °F 55.9 °F 61% 30.23 in 10.0 mi Variable 4.6 mph - N/A   Partly Cloudy
11:14 AM 71.6 °F 55.4 °F 57% 30.23 in 10.0 mi Variable 6.9 mph - N/A   Mostly Cloudy
11:25 AM 69.8 °F 55.4 °F 60% 30.24 in 10.0 mi Calm Calm - N/A   Scattered Clouds
11:53 AM 72.0 °F 55.0 °F 55% 30.23 in 10.0 mi West 4.6 mph - N/A   Scattered Clouds
12:53 PM 75.0 °F 54.0 °F 48% 30.21 in 10.0 mi Variable 3.5 mph - N/A   Mostly Cloudy
1:53 PM 75.9 °F 54.0 °F 46% 30.20 in 10.0 mi WSW 8.1 mph - N/A   Clear
2:53 PM 75.9 °F 54.0 °F 46% 30.19 in 10.0 mi Calm Calm - N/A   Partly Cloudy
3:53 PM 77.0 °F 54.0 °F 45% 30.17 in 10.0 mi SSW 3.5 mph - N/A   Partly Cloudy
4:53 PM 78.1 °F 53.1 °F 42% 30.16 in 10.0 mi Calm Calm - N/A   Clear
5:53 PM 78.1 °F 54.0 °F 43% 30.15 in 10.0 mi SW 3.5 mph - N/A   Partly Cloudy
6:53 PM 77.0 °F 54.0 °F 45% 30.14 in 10.0 mi Variable 5.8 mph - N/A   Clear
7:53 PM 75.0 °F 54.0 °F 48% 30.14 in 10.0 mi South 3.5 mph - N/A   Clear
8:53 PM 73.0 °F 55.9 °F 55% 30.13 in 10.0 mi SSE 3.5 mph - N/A   Clear
9:53 PM 69.1 °F 55.9 °F 63% 30.14 in 10.0 mi Calm Calm - N/A   Clear
10:53 PM 66.9 °F 57.9 °F 73% 30.14 in 10.0 mi SSE 4.6 mph - N/A   Clear
11:53 PM 64.9 °F 57.9 °F 78% 30.14 in 10.0 mi SE 3.5 mph - N/A   Clear